Regional Weather Roundup
Issued by NWS

Home | Current Version | Previous Version | Graphics & Text | Print | Product List | Glossary On
Versions: 1 2 3 4 5 6 7 8 9 10 11 12 13 14 15 16 17 18 19 20 21 22 23 24 25 26 27 28 29 30 31 32 33 34 35 36 37 38 39 40 41 42 43 44 45 46 47 48 49 50
426
ASUS43 KOAX 252202
RWRNE

WEATHER ROUNDUP FOR NEBRASKA
NATIONAL WEATHER SERVICE OMAHA NE
500 PM CDT WED APR 25 2018

NOTES: SATELLITE DATA IS BEING USED TO AUGMENT CLOUD COVER ABOVE
       12000 FEET.
       "FAIR" INDICATES FEW OR NO CLOUDS BELOW 12,000 FEET WITH NO
       SIGNIFICANT WEATHER AND/OR OBSTRUCTIONS TO VISIBILITY.


NEZ001>004-019>022-054>056-252300-
NEBRASKA PANHANDLE

CITY           SKY/WX    TMP DP  RH WIND       PRES   REMARKS
SCOTTSBLUFF    SUNNY     68  23  18 S9        30.03F
ALLIANCE       SUNNY     65  21  18 SW10G20   30.03F
CHADRON        SUNNY     70  19  14 SW16G25   29.98F
GORDON         FAIR      66  27  23 SW14      30.02F
KIMBALL        SUNNY     66  23  19 W9        30.08F
SIDNEY         SUNNY     65  25  22 SW10      30.08F
$$

NEZ057>060-069>072-079>082-252300-
SOUTHWEST NEBRASKA

CITY           SKY/WX    TMP DP  RH WIND       PRES   REMARKS
NORTH PLATTE   SUNNY     63  28  26 CALM      30.11F
IMPERIAL       SUNNY     62  31  31 W9        30.12F
LEXINGTON      SUNNY     59  32  35 N5        30.11F
MCCOOK         SUNNY     62  33  33 N8        30.12F
OGALLALA       SUNNY     63  29  28 CALM      30.09F
$$

NEZ005>010-023>029-035>040-094-252300-
NORTH CENTRAL NEBRASKA

CITY           SKY/WX    TMP DP  RH WIND       PRES   REMARKS
VALENTINE      SUNNY     65  22  19 SW10G21   30.03F
AINSWORTH      SUNNY     62  25  24 S10       30.05F
BROKEN BOW     SUNNY     59  33  37 S3        30.10F
O`NEILL        SUNNY     61  28  28 S6        30.10F
ORD            SUNNY     59  26  28 E3        30.09F
THEDFORD       SUNNY     64  24  22 CALM      30.07F
$$

NEZ041-046>049-061>064-073>077-083>087-252300-
SOUTH CENTRAL NEBRASKA

CITY           SKY/WX    TMP DP  RH WIND       PRES   REMARKS
GRAND ISLAND   SUNNY     59  32  36 N5        30.12F
AURORA         SUNNY     56  31  38 CALM      30.11F
HASTINGS       SUNNY     57  33  40 N8        30.13F
HEBRON         CLOUDY    54  39  55 N5        30.13F
HOLDREGE       SUNNY     57  34  42 W7        30.12F
KEARNEY        SUNNY     57  29  34 NW10      30.12F
YORK             N/A     55  36  47 CALM      30.12F
$$

NEZ011>018-030>034-042>045-252300-
NORTHEAST NEBRASKA

CITY           SKY/WX    TMP DP  RH WIND       PRES   REMARKS
NORFOLK        SUNNY     59  30  33 NW7       30.09F
ALBION         SUNNY     59  28  31 NW3       30.10F
BLAIR          SUNNY     60  33  35 NW8       30.08F
COLUMBUS       SUNNY     60  34  37 NW7       30.10F
FREMONT        SUNNY     61  32  32 CALM      30.10F
TEKAMAH        SUNNY     62  32  32 MISG      30.08F
WAYNE          SUNNY     60  31  33 NW5       30.09F
$$

NEZ050>053-065>068-078-088>093-252300-
SOUTHEAST NEBRASKA

CITY           SKY/WX    TMP DP  RH WIND       PRES   REMARKS
LINCOLN        SUNNY     59  34  39 N7        30.13F
OMAHA EPPLEY   MOSUNNY   64  32  30 NW5       30.08F
BEATRICE       PTSUNNY   54  40  59 N7        30.12F
FALLS CITY     MOSUNNY   54  40  59 N8        30.10F
NEBRASKA CITY  CLOUDY    53  42  68 NW7       30.11F
PLATTSMOUTH    CLOUDY    56  35  45 NW7       30.10F
$$

NEZ044-045-051>053-067-252300-
OMAHA AREA

CITY           SKY/WX    TMP DP  RH WIND       PRES   REMARKS
OMAHA EPPLEY   MOSUNNY   64  32  30 NW5       30.08F
BLAIR          SUNNY     60  33  35 NW8       30.08F
FREMONT        SUNNY     61  32  32 CALM      30.10F
MILLARD        SUNNY     60  34  38 NW7       30.09F
PLATTSMOUTH    CLOUDY    56  35  45 NW7       30.10F
WAHOO          FAIR      60  27  28 NE3       30.10F
$$




USA.gov is the U.S. government's official web portal to all federal, state and local government web resources and services.